Location: Newark
(46.9000°N, 28.3500°E)
Time: 13:00:22
(UTC+00:00)

Vanguard 1 Rocket - Pass Details

Date: 02 September 2019
Orbit: 651 x 4225 km, 34.3° (Epoch: 20 September)

Event Time Altitude Azimuth Distance (km) Brightness Sun altitude
Rises 19:56:33 0° 215° (SW) 4,950 11.0 -28.2°
Enters shadow 19:58:21 - 209° (SSW) 4,379 10.7 -28.4°
Reaches altitude 10° 20:02:23 10° 191° (SSW) 3,217 - -28.8°
Maximum altitude 20:05:35 13° 166° (SSE) 2,609 - -29.1°
Drops below altitude 10° 20:08:15 10° 138° (SE) 2,553 - -29.4°
Sets 20:11:46 0° 109° (ESE) 3,179 - -29.7°
